This demonstration page uses our WeatherBlox Daily Observations layout. Learn more.

Left ArrowRight Arrow

34.16533, -84.80231

Hourly Observations for August 30, 2017

Temp ( °F °C ) Dew Point ( °F °C ) Humidity (%) Winds ( mph kmh ) Pressure ( in mb ) Visibility ( mi km ) Precip ( " mm )
12:53 am 00:53 Cloudy 72 22.2 69 20.6 91 91 Calm 29.98 1015 10 16 0.00 0.00
1:53 am 01:53 Mostly Clear 72 22.2 69 20.6 91 91 Calm 29.97 1015 10 16 0.00 0.00
2:53 am 02:53 Clear 71 21.7 69 20.6 94 94 Calm 29.97 1015 10 16 0.00 0.00
3:53 am 03:53 Mostly Cloudy 70 21.1 69 20.6 97 97 Calm 29.98 1015 10 16 0.00 0.00
4:53 am 04:53 Mostly Cloudy 70 21.1 68 20 93 93 Calm 29.98 1015 10 16 0.00 0.00
5:53 am 05:53 Cloudy 70 21.1 68 20 93 93 Calm 29.99 1016 10 16 0.00 0.00
6:53 am 06:53 Cloudy 70 21.1 68 20 93 93 Calm 30.00 1016 10 16 0.00 0.00
7:53 am 07:53 Cloudy 70 21.1 68 20 93 93 Calm 30.03 1017 10 16 0.00 0.00
8:53 am 08:53 Cloudy 72 22.2 68 20 87 87 Calm 30.03 1017 10 16 0.00 0.00
9:53 am 09:53 Mostly Cloudy 73 22.8 68 20 84 84 VRB 3 6 30.03 1017 10 16 0.00 0.00
10:53 am 10:53 Mostly Cloudy 74 23.3 68 20 82 82 VRB 5 7 30.04 1017 10 16 0.00 0.00
11:53 am 11:53 Cloudy 73 22.8 69 20.6 87 87 Calm 30.05 1018 10 16 0.00 0.03
12:53 pm 12:53 Cloudy with Rain 71 21.7 71 21.7 100 100 SE 3 6 30.06 1018 5 8 0.04 1.02
1:43 pm 13:43 Cloudy with Rain 71 21.7 71 21.7 100 100 Calm 30.06 1018 4 6 0.19 4.83
1:53 pm 13:53 Cloudy with Rain 70 21.1 70 21.1 100 100 Calm 30.07 1018 3 5 0.22 5.59
2:25 pm 14:25 Cloudy with Rain 71 21.7 71 21.7 100 100 Calm 30.06 1018 4 6 0.08 2.03
2:35 pm 14:35 Cloudy with Light Rain 71 21.7 71 21.7 100 100 VRB 5 7 30.06 1018 6 10 0.09 2.29
2:53 pm 14:53 Cloudy with Light Rain 71 21.7 71 21.7 100 100 ESE 7 11 30.05 1018 8 13 0.10 2.54
3:41 pm 15:41 Cloudy with Light Rain 71 21.7 71 21.7 100 100 VRB 7 11 30.03 1017 5 8 0.05 1.27
3:53 pm 15:53 Cloudy with Light Rain 72 22.2 71 21.7 97 97 Calm 30.02 1017 10 16 0.05 1.27
4:00 pm 16:00 Cloudy 72 22.2 72 22.2 100 100 E 3 6 30.03 1017 10 16 0.00 0.03
4:26 pm 16:26 Cloudy with Light Rain 71 21.7 71 21.7 100 100 E 3 6 30.03 1017 8 13 0.01 0.25
4:34 pm 16:34 Cloudy with Light Rain 71 21.7 71 21.7 100 100 E 5 7 30.03 1017 8 13 0.01 0.25
4:42 pm 16:42 Cloudy with Light Rain 72 22.2 72 22.2 100 100 VRB 3 6 30.03 1017 9 14 0.02 0.51
4:53 pm 16:53 Cloudy with Light Rain 72 22.2 71 21.7 97 97 E 3 6 30.02 1017 10 16 0.02 0.51
4:58 pm 16:58 Cloudy with Light Rain 71 21.7 71 21.7 100 100 Calm 30.03 1017 10 16 0.00 0.03
5:12 pm 17:12 Cloudy with Light Rain 71 21.7 71 21.7 100 100 E 3 6 30.03 1017 8 13 0.01 0.25
5:20 pm 17:20 Cloudy with Light Rain 72 22.2 72 22.2 100 100 ESE 5 7 30.03 1017 8 13 0.01 0.25
5:34 pm 17:34 Cloudy with Rain 71 21.7 71 21.7 100 100 ESE 6 9 30.03 1017 1 2 0.05 1.27
5:45 pm 17:45 Cloudy with Rain 71 21.7 71 21.7 100 100 VRB 3 6 30.03 1017 3 5 0.09 2.29
5:53 pm 17:53 Cloudy with Rain 71 21.7 71 21.7 100 100 ENE 5 7 30.02 1017 3 5 0.11 2.79
6:18 pm 18:18 Cloudy with Light Rain 71 21.7 71 21.7 100 100 VRB 3 6 30.03 1017 8 13 0.01 0.25
6:53 pm 18:53 Cloudy 71 21.7 71 21.7 100 100 VRB 5 7 30.02 1017 10 16 0.02 0.51
6:56 pm 18:56 Cloudy 70 21.1 70 21.1 100 100 VRB 6 9 30.03 1017 10 16 0.00 0.00
7:04 pm 19:04 Cloudy 70 21.1 70 21.1 100 100 VRB 5 7 30.03 1017 10 16 0.00 0.00
7:14 pm 19:14 Cloudy 70 21.1 70 21.1 100 100 E 5 7 30.03 1017 10 16 0.00 0.00
7:53 pm 19:53 Cloudy 70 21.1 70 21.1 100 100 ENE 5 7 30.01 1016 10 16 0.00 0.00
8:53 pm 20:53 Cloudy 69 20.6 69 20.6 100 100 VRB 5 7 30.02 1017 10 16 0.00 0.00
9:23 pm 21:23 Cloudy 69 20.6 69 20.6 100 100 ENE 3 6 30.03 1017 10 16 0.00 0.00
9:50 pm 21:50 Cloudy 70 21 70 21 100 100 VRB 3 6 30.03 1017 10 16 0.00 0.00
9:53 pm 21:53 Cloudy 69 20.6 69 20.6 100 100 Calm 30.04 1017 10 16 0.00 0.00
10:25 pm 22:25 Cloudy with Light Rain 69 20.6 69 20.6 100 100 E 3 6 30.06 1018 8 13 0.07 1.78
10:53 pm 22:53 Cloudy with Light Rain 69 20.6 69 20.6 100 100 ESE 3 6 30.05 1018 8 13 0.08 2.03
11:07 pm 23:07 Cloudy with Rain 69 20.6 69 20.6 100 100 ESE 6 9 30.06 1018 5 8 0.05 1.27
11:19 pm 23:19 Cloudy with Rain 69 20.6 69 20.6 100 100 ESE 7 11 30.06 1018 4 6 0.12 3.05
11:53 pm 23:53 Cloudy with Light Rain 69 20.6 69 20.6 100 100 ESE 3 6 30.05 1018 10 16 0.14 3.56

Powered by AerisWeather